EHI
4 5 8 20 45 69 83 88 88 85 79 65 43 24 14 10 7 4 2 0 0 0 0 0 0 0 0 0 0 0 0 0 0 0 0 0 0 0 0 0 0 0 0
2 3 5 13 33 58 74 82 83 78 71 57 36 18 9 6 5 3 2 0 0 0 0 0 0 0 0 0 0 0 0 0 0 0 0 0 0 0 0 0 0 0 0
1 2 3 8 20 39 57 69 71 64 54 40 22 9 4 2 2 1 1 0 0 0 0 0 0 0 0 0 0 0 0 0 0 0 0 0 0 0 0 0 0 0 0
2 3 5 9 16 28 41 52 53 44 33 23 12 5 2 1 0 0 0 0 0 0 0 0 0 0 0 0 0 0 0 0 0 0 0 0 0 0 0 0 0 0 0
6 8 11 14 19 25 33 36 33 25 18 12 7 4 2 1 0 0 0 0 0 0 0 0 0 0 0 0 0 0 0 0 0 0 0 0 0 0 0 0 0 0 0
14 16 19 21 23 24 24 24 19 12 8 5 3 2 1 0 0 0 0 0 0 0 0 0 0 0 0 0 0 0 0 0 0 0 0 0 0 0 0 0 0 0 0
20 22 22 22 20 17 14 12 10 5 2 1 1 0 0 0 0 0 0 0 0 0 0 0 0 0 0 0 0 0 0 0 0 0 0 0 0 0 0 0 0 0 0
17 19 18 14 11 8 5 4 3 1 0 0 0 0 0 0 0 0 0 0 0 0 0 0 0 0 0 0 0 0 0 0 0 0 0 0 0 0 0 0 0 0 0
12 12 9 6 4 2 1 1 0 0 0 0 0 0 0 0 0 0 0 0 0 0 0 0 0 0 0 0 0 0 0 0 0 0 0 0 0 0 0 0 0 0 0
5 4 3 1 1 1 0 0 0 0 0 0 0 0 0 0 0 0 0 0 0 0 0 0 0 0 0 0 0 0 0 0 0 0 0 0 0 0 0 0 0 0 0
1 1 0 0 0 0 0 0 0 0 0 0 0 0 0 0 0 0 0 0 0 0 0 0 0 0 0 0 0 0 0 0 0 0 0 0 0 0 0 0 0 0 0
0 0 0 0 0 0 0 0 0 0 0 0 0 0 0 0 0 0 0 0 0 0 0 0 0 0 0 0 0 0 0 0 0 0 0 0 0 0 0 0 0 0 0
0 0 0 0 0 0 0 0 0 0 0 0 0 0 0 0 0 0 0 0 0 0 0 0 0 0 0 0 0 0 0 0 0 0 0 0 0 0 0 0 0 0 0
0 0 0 0 0 0 0 0 0 0 0 0 0 0 0 0 0 0 0 0 0 0 0 0 0 0 0 0 0 0 0 0 0 0 0 0 0 0 0 0 0 0 0
0 0 0 0 0 0 0 0 0 0 0 0 0 0 0 0 0 0 0 0 0 0 0 0 0 0 0 0 0 0 0 0 0 0 0 0 0 0 0 0 0 0 0
0 0 0 0 0 0 0 0 0 0 0 0 0 0 0 0 0 0 0 0 0 0 0 0 0 0 0 0 0 0 0 0 0 0 0 0 0 0 0 0 0 0 0
0 0 0 0 0 0 0 0 0 0 0 0 0 0 0 0 0 0 0 0 0 0 0 0 0 0 0 0 0 0 0 0 0 0 0 0 0 0 0 0 0 0 0
0 0 0 0 0 0 0 0 0 0 0 0 0 0 0 0 0 0 0 0 0 0 0 0 0 0 0 0 0 0 0 0 0 0 0 0 0 0 0 0 0 0 0
0 0 0 0 0 0 0 0 0 0 0 0 0 0 0 0 0 0 0 0 0 0 0 0 0 0 0 0 0 0 0 0 0 0 0 0 0 0 0 0 0 0 0
0 0 0 0 0 0 0 0 0 0 0 0 0 0 0 0 0 0 0 0 0 0 0 0 0 0 0 0 0 0 0 0 0 0 0 0 0 0 0 0 0 0 0
0 0 0 0 0 0 0 0 0 0 0 0 0 0 0 0 0 0 0 0 0 0 0 0 0 0 0 0 0 0 0 0 0 0 0 0 0 0 0 0 0 0 0
0 0 0 0 0 0 0 0 0 0 0 0 0 0 0 0 0 0 0 0 0 0 0 0 0 0 0 0 0 0 0 0 0 0 0 0 0 0 0 0 0 0 0
0 0 0 0 0 0 0 0 0 0 0 0 0 0 0 0 0 0 0 0 0 0 0 0 0 0 0 0 0 0 0 0 0 0 0 0 0 0 0 0 0 0 0
0 0 0 0 0 0 0 0 0 0 0 0 0 0 0 0 0 0 0 0 0 0 0 0 0 0 0 0 0 0 0 0 0 0 0 0 0 0 0 0 0 0 0
0 0 0 0 0 0 0 0 0 0 0 0 0 0 0 0 0 0 0 0 0 0 0 0 0 0 0 0 0 0 0 0 0 0 0 0 0 0 0 0 0 0 0
0 0 0 0 0 0 0 0 0 0 0 0 0 0 0 0 0 0 0 0 0 0 0 0 0 0 0 0 0 0 0 0 0 0 0 0 0 0 0 0 0 0 0
Wind_Speed
15 9 10 9 9 10 11 11 11 9 9 7 6 5 3 2 2 2 3 3 5 6 5 5 5 4 4 4 4 3 4 3 2 2 2 2 3 4 4 4 5 7 6
9 9 9 8 9 10 9 9 9 9 9 7 6 4 4 3 3 3 4 4 5 6 6 7 5 5 5 5 4 3 3 2 3 1 2 1 1 2 3 3 4 4 4
11 8 7 7 7 7 8 8 8 8 8 8 7 6 5 3 3 3 3 4 5 6 7 7 6 5 5 5 4 3 4 3 2 3 2 2 1 2 1 1 2 2 2
7 6 5 5 4 4 6 7 8 8 8 8 8 8 5 3 3 3 3 5 6 6 6 7 7 6 5 5 4 3 3 4 2 2 3 2 2 1 2 2 2 2 2
2 2 3 5 7 7 8 9 10 10 8 8 8 7 6 5 5 5 6 5 5 6 6 7 6 6 5 5 5 5 4 3 3 2 1 2 2 1 2 4 4 4 4
6 8 9 11 11 10 10 10 11 10 9 9 7 7 8 9 9 8 6 5 4 4 6 6 6 6 5 5 5 5 5 3 3 2 1 2 1 2 2 4 5 6 6
10 11 12 12 12 12 11 11 12 10 9 9 8 8 7 8 9 8 7 6 4 3 4 5 5 5 5 5 4 4 3 3 2 2 1 2 2 2 2 3 5 6 5
12 12 12 11 11 11 11 11 11 10 8 8 9 8 8 6 5 7 6 5 4 4 4 5 5 5 5 5 4 3 3 2 2 1 0 1 2 2 2 3 4 7 6
13 13 12 12 12 12 11 11 11 10 9 9 10 10 8 7 8 7 7 5 5 5 6 5 5 5 5 5 4 4 3 3 3 2 2 1 1 1 2 3 3 5 10
12 13 12 12 12 11 11 11 12 11 11 10 9 9 8 8 8 8 8 7 6 6 6 6 6 6 6 5 5 4 4 4 3 2 2 2 2 3 2 3 3 5 7
11 11 11 11 11 11 11 11 11 11 11 10 10 10 9 9 9 9 8 7 7 6 6 6 6 6 6 6 5 5 4 4 3 4 4 4 4 3 4 4 4 5 5
10 11 11 11 11 11 11 11 10 11 10 10 10 10 9 10 10 9 8 7 7 6 6 6 6 6 6 5 5 4 4 4 4 4 5 6 5 6 5 5 6 6 7
10 10 10 10 10 10 10 10 10 10 9 9 10 10 10 10 9 8 7 7 7 6 6 6 6 5 4 4 4 3 3 3 4 5 6 7 7 7 7 7 7 7 7
9 9 9 9 9 9 9 9 9 9 9 9 10 10 9 8 7 7 6 6 6 6 5 5 4 3 3 3 3 3 3 4 5 6 6 7 7 9 9 8 8 8 8
8 8 8 7 8 8 8 8 8 8 8 9 9 8 7 7 7 7 6 6 6 6 5 4 4 3 2 2 3 3 4 6 7 8 8 8 11 12 9 8 8 8 8
7 7 7 7 7 7 7 8 7 7 7 9 8 7 7 7 7 6 6 6 6 5 5 4 4 4 3 5 7 6 4 6 7 9 9 9 10 11 14 15 15 14 11
7 7 7 7 7 6 7 7 6 6 8 8 7 7 6 7 6 6 6 6 5 4 5 4 4 4 4 7 8 10 6 7 7 8 9 8 8 11 9 12 15 15 16
7 7 7 7 6 6 6 6 6 7 7 6 6 6 6 6 6 6 5 4 3 4 3 3 4 3 5 8 9 12 8 7 8 9 9 9 10 9 10 11 11 11 11
7 7 7 7 6 6 5 6 6 6 6 6 5 5 5 5 5 5 4 3 3 3 3 3 4 4 5 8 10 11 7 7 9 10 9 9 9 12 13 11 11 12 11
7 7 7 7 7 5 5 7 6 6 5 4 4 4 4 5 4 4 3 3 2 3 3 4 4 4 5 9 10 11 5 7 8 9 9 11 11 14 14 10 9 10 10
8 7 7 6 5 4 5 6 5 4 3 4 4 4 4 3 3 3 2 3 3 3 4 5 5 5 6 9 11 12 6 6 8 8 8 8 13 15 15 11 8 10 11
7 7 6 5 4 4 5 5 4 2 3 4 4 3 2 2 2 3 3 3 3 3 4 5 6 5 6 7 10 13 12 10 7 7 7 8 14 15 13 10 11 13 10
6 5 5 5 4 3 4 4 1 2 3 3 2 2 2 2 2 2 2 2 2 2 3 4 5 6 6 7 11 12 14 15 8 7 12 13 13 12 9 10 13 10 6
5 4 5 5 3 3 2 2 1 2 3 2 1 0 1 2 2 1 1 1 1 2 3 4 5 6 7 6 8 8 9 11 9 8 10 12 11 9 9 9 8 6 6
4 4 4 3 2 2 2 1 1 2 2 1 0 0 1 1 1 1 1 1 2 2 2 3 4 6 7 8 12 9 7 7 8 8 5 5 7 7 7 7 7 6 6
3 3 3 3 2 2 2 2 1 2 2 0 0 0 0 0 1 1 2 3 3 5 5 5 5 5 7 11 12 13 12 12 12 6 5 6 7 7 7 7 7 6 7
Wind_Direction
228 213 208 199 191 190 190 188 184 172 159 158 153 147 144 129 97 102 110 132 133 131 128 120 109 105 105 110 115 104 81 50 14 79 68 54 54 67 56 57 60 54 47
234 217 211 200 197 192 186 181 178 166 162 158 145 130 121 110 89 72 80 97 114 121 123 118 120 118 113 105 104 118 114 61 26 85 94 35 18 32 42 42 60 51 40
230 224 213 209 197 183 174 170 162 152 144 133 115 103 89 82 96 90 83 80 91 106 119 124 124 122 117 116 107 113 126 121 56 42 112 122 245 311 336 4 33 25 29
233 213 192 188 172 152 138 132 129 125 123 123 126 129 137 141 133 119 105 95 94 102 108 111 112 112 109 112 108 97 102 116 112 67 50 85 138 180 314 308 303 317 320
221 165 130 110 96 98 102 105 106 104 107 112 126 123 119 113 110 106 102 92 86 91 99 106 107 106 104 105 102 98 91 93 111 116 112 95 78 122 212 283 303 306 287
71 82 85 89 88 89 92 98 101 95 92 94 101 108 118 127 130 128 122 108 96 91 95 102 101 102 102 103 104 102 100 101 109 118 133 150 175 203 211 254 278 289 290
76 81 84 86 86 86 88 92 95 92 91 96 99 106 122 134 138 135 130 125 115 103 104 107 104 103 105 106 103 98 97 108 116 142 172 193 214 208 212 249 274 277 281
72 75 77 79 81 81 83 87 91 92 93 99 101 105 112 114 116 117 120 118 112 106 105 102 98 99 100 97 91 86 82 83 79 74 174 244 254 228 225 244 279 292 285
70 70 69 70 72 72 71 76 80 75 71 76 83 86 91 99 103 102 99 98 99 102 93 90 86 81 79 80 80 69 57 55 44 31 19 341 307 292 265 251 247 278 296
68 66 64 65 65 67 68 67 74 76 74 75 79 85 83 88 93 94 92 92 88 89 88 82 78 73 71 73 74 70 59 59 39 20 9 345 316 311 298 283 271 258 276
68 67 65 65 66 65 66 68 70 72 72 75 79 82 81 83 84 84 84 84 82 84 87 89 86 80 75 75 77 72 58 50 27 10 354 333 319 307 303 294 285 275 270
70 69 68 68 67 67 67 68 69 71 73 76 78 77 76 76 77 77 76 79 80 79 86 90 90 88 84 77 74 62 48 31 8 348 334 323 319 307 298 291 286 281 272
72 69 66 65 65 67 70 71 73 75 76 77 78 76 74 74 73 72 72 74 77 77 80 87 90 90 87 77 65 55 32 7 342 326 317 312 311 304 299 293 286 283 284
70 68 65 65 66 68 72 75 72 75 79 79 78 76 74 76 76 74 72 72 77 80 80 83 83 81 72 59 41 23 2 343 330 320 310 305 299 291 292 291 289 290 291
71 69 71 72 73 73 71 70 70 71 79 81 79 78 76 76 75 72 69 68 68 74 78 77 64 47 44 33 18 358 346 336 328 322 315 308 304 305 308 309 307 304 298
82 79 80 79 77 78 77 74 71 70 78 81 79 79 78 76 73 71 67 66 62 60 60 53 41 27 23 14 12 2 340 329 322 319 318 313 307 312 315 313 312 309 304
89 86 83 80 78 77 81 80 76 74 76 78 77 77 79 76 69 71 66 61 55 54 48 35 28 17 3 13 6 355 345 326 317 313 313 312 311 314 308 310 312 307 301
93 91 91 88 82 81 81 82 77 75 76 78 79 80 80 78 70 66 59 50 44 42 31 24 16 7 360 3 358 350 343 324 316 312 307 306 309 312 318 317 310 306 303
94 92 92 91 86 79 82 84 76 73 75 77 79 81 84 81 69 60 48 37 38 32 20 10 8 2 346 349 350 353 334 325 322 318 316 315 315 315 319 319 312 310 309
91 92 90 86 80 72 78 82 77 75 75 79 84 81 80 82 75 64 48 34 41 30 17 11 1 352 340 337 345 350 335 327 324 320 320 319 317 317 320 317 310 311 315
92 91 87 81 74 74 81 81 77 71 70 82 84 77 73 82 83 69 53 49 45 31 15 1 346 343 339 336 340 345 342 328 320 318 319 317 318 319 319 317 307 304 309
92 91 88 78 65 74 89 88 79 63 72 79 78 70 56 60 91 87 66 50 41 28 9 356 349 343 339 337 337 339 339 334 319 313 313 312 316 320 321 321 317 318 319
94 87 88 77 57 62 93 100 92 92 92 84 78 69 59 49 74 95 77 47 31 21 2 356 347 339 337 335 337 337 335 336 332 315 315 320 325 328 326 323 325 328 328
91 88 86 78 55 48 73 110 103 110 107 100 86 87 67 46 53 68 80 51 1 357 350 345 340 335 334 338 342 337 332 332 333 327 322 323 326 331 327 327 330 333 330
88 87 91 91 73 59 56 59 112 130 127 130 299 344 35 62 46 21 302 294 264 261 305 314 317 326 329 328 327 329 329 328 325 322 325 338 340 343 342 339 338 339 345
95 93 95 95 80 71 51 28 75 134 138 136 318 331 3 24 31 1 344 330 317 323 321 313 314 307 305 317 329 335 335 335 337 342 343 341 340 338 338 341 343 346 352